Location: Brno
(49.2000°N, 16.6330°E)
Time: 20:30:41
(UTC+02:00)

Explorer 11/Cluster Stage 4 - Pass Details

Date: 30 July 2021
Orbit: 467 x 1257 km, 28.8° (Epoch: 17 September)

Event Time Altitude Azimuth Distance (km) Brightness Sun altitude
Rises 10:29:47 0° 210° (SSW) 4,179 10.3 46.9°
Reaches altitude 10° 10:35:21 10° 181° (S) 3,215 10.2 47.7°
Maximum altitude 10:37:42 11° 164° (SSE) 3,082 10.3 48.0°
Drops below altitude 10° 10:40:02 10° 147° (SSE) 3,161 10.5 48.3°
Sets 10:45:21 0° 117° (ESE) 4,001 10.9 49.0°
